| time (UTC) | temp F | wind direction | speed MPH | gust MPH | rain 1hr in | rain 24hr in | rain mn in | humidity % | barometer mb |
| 20260902030236 | 70 | 296 | 0.0 | 0.0 | 0.00 | 0.00 | 0.00 | 66 | |
| 20260902025734 | 70 | 296 | 0.0 | 3.0 | 0.00 | 0.00 | 0.00 | 65 | |
| 20260902025237 | 70 | 296 | 0.0 | 3.0 | 0.00 | 0.00 | 0.00 | 64 | |
| 20260902024719 | 71 | 296 | 0.0 | 3.0 | 0.00 | 0.00 | 0.00 | 63 | |
| 20260902024202 | 71 | 296 | 0.0 | 3.0 | 0.00 | 0.00 | 0.00 | 61 | |
| 20260902023657 | 72 | 296 | 0.0 | 3.0 | 0.00 | 0.00 | 0.00 | 60 | |
| 20260902023139 | 72 | 296 | 0.0 | 3.0 | 0.00 | 0.00 | 0.00 | 60 | |
| 20260902022625 | 73 | 296 | 0.0 | 2.0 | 0.00 | 0.00 | 0.00 | 59 | |
| 20260902022115 | 73 | 296 | 0.0 | 3.0 | 0.00 | 0.00 | 0.00 | 58 | |
| 20260902021559 | 74 | 296 | 0.0 | 3.0 | 0.00 | 0.00 | 0.00 | 58 | |
| 20260902021044 | 74 | 296 | 1.0 | 4.0 | 0.00 | 0.00 | 0.00 | 58 | |
| 20260902020552 | 75 | 296 | 1.0 | 4.0 | 0.00 | 0.00 | 0.00 | 59 | |
| 20260902020050 | 75 | 296 | 1.0 | 4.0 | 0.00 | 0.00 | 0.00 | 58 | |
| 20260902015537 | 76 | 296 | 1.0 | 4.0 | 0.00 | 0.00 | 0.00 | 57 | |
| 20260902015044 | 76 | 296 | 1.0 | 3.0 | 0.00 | 0.00 | 0.00 | 56 | |
| 20260902014538 | 77 | 296 | 1.0 | 4.0 | 0.00 | 0.00 | 0.00 | 55 | |
| 20260902014019 | 78 | 296 | 1.0 | 4.0 | 0.00 | 0.00 | 0.00 | 53 | |
| 20260902013513 | 78 | 296 | 2.0 | 4.0 | 0.00 | 0.00 | 0.00 | 52 | |
| 20260902013012 | 79 | 296 | 2.0 | 4.0 | 0.00 | 0.00 | 0.00 | 51 | |
| 20260902012502 | 80 | 296 | 1.0 | 5.0 | 0.00 | 0.00 | 0.00 | 49 | |
| 20260902011946 | 80 | 296 | 1.0 | 5.0 | 0.00 | 0.00 | 0.00 | 45 | |
| 20260902011437 | 81 | 296 | 1.0 | 5.0 | 0.00 | 0.00 | 0.00 | 41 | |
| 20260902010258 | 82 | 296 | 1.0 | 4.0 | 0.00 | 0.00 | 0.00 | 36 | |
| 20260902005756 | 83 | 296 | 1.0 | 4.0 | 0.00 | 0.00 | 0.00 | 35 | |
| 20260902005239 | 84 | 296 | 2.0 | 4.0 | 0.00 | 0.00 | 0.00 | 36 | |
| 20260902004744 | 84 | 296 | 1.0 | 4.0 | 0.00 | 0.00 | 0.00 | 34 | |
| 20260902003626 | 85 | 296 | 1.0 | 4.0 | 0.00 | 0.00 | 0.00 | 33 | |
| 20260902002508 | 86 | 296 | 0.0 | 4.0 | 0.00 | 0.00 | 0.00 | 33 | |
| 20260902001313 | 87 | 297 | 0.0 | 1.0 | 0.00 | 0.00 | 0.00 | 33 | |
| 20260902000819 | 87 | 297 | 0.0 | 1.0 | 0.00 | 0.00 | 0.00 | 32 | |
| 20260902000322 | 87 | 298 | 0.0 | 0.0 | 0.00 | 0.00 | 0.00 | 34 | |
| 20260901235809 | 87 | 298 | 0.0 | 0.0 | 0.00 | 0.00 | 0.00 | 34 | |
| 20260901235317 | 87 | 298 | 1.0 | 1.0 | 0.00 | 0.00 | 0.00 | 34 | |
| 20260901234800 | 87 | 300 | 0.0 | 4.0 | 0.00 | 0.00 | 0.00 | 34 | |
| 20260901234244 | 87 | 278 | 0.0 | 2.0 | 0.00 | 0.00 | 0.00 | 32 | |
| 20260901233751 | 88 | 277 | 0.0 | 1.0 | 0.00 | 0.00 | 0.00 | 32 | |
| 20260901233245 | 88 | 227 | 0.0 | 3.0 | 0.00 | 0.00 | 0.00 | 31 | |
| 20260901232735 | 88 | 230 | 0.0 | 3.0 | 0.00 | 0.00 | 0.00 | 31 | |
| 20260901232237 | 88 | 243 | 0.0 | 3.0 | 0.00 | 0.00 | 0.00 | 31 | |
| 20260901231719 | 87 | 243 | 0.0 | 3.0 | 0.00 | 0.00 | 0.00 | 31 | |
| 20260901231219 | 87 | 148 | 0.0 | 1.0 | 0.00 | 0.00 | 0.00 | 32 | |
| 20260901230700 | 87 | 122 | 0.0 | 2.0 | 0.00 | 0.00 | 0.00 | 32 | |
| 20260901230201 | 87 | 16 | 0.0 | 3.0 | 0.00 | 0.00 | 0.00 | 34 | |
| 20260901225642 | 87 | 15 | 0.0 | 3.0 | 0.00 | 0.00 | 0.00 | 34 | |
| 20260901225128 | 87 | 144 | 0.0 | 3.0 | 0.00 | 0.00 | 0.00 | 35 | |
| 20260901224612 | 87 | 147 | 0.0 | 3.0 | 0.00 | 0.00 | 0.00 | 33 | |
| 20260901223449 | 87 | 150 | 0.0 | 1.0 | 0.00 | 0.00 | 0.00 | 33 | |
| 20260901222952 | 86 | 44 | 0.0 | 3.0 | 0.00 | 0.00 | 0.00 | 34 | |
| 20260901222446 | 86 | 107 | 0.0 | 1.0 | 0.00 | 0.00 | 0.00 | 35 | |
| 20260901221941 | 86 | 199 | 0.0 | 4.0 | 0.00 | 0.00 | 0.00 | 34 | |
| 20260901221447 | 86 | 160 | 0.0 | 4.0 | 0.00 | 0.00 | 0.00 | 37 | |
| 20260901220943 | 85 | 120 | 0.0 | 4.0 | 0.00 | 0.00 | 0.00 | 37 | |
| 20260901220446 | 85 | 57 | 0.0 | 4.0 | 0.00 | 0.00 | 0.00 | 38 | |
| 20260901215324 | 85 | 111 | 0.0 | 4.0 | 0.00 | 0.00 | 0.00 | 38 | |
| 20260901214815 | 85 | 98 | 0.0 | 4.0 | 0.00 | 0.00 | 0.00 | 40 | |
| 20260901214306 | 84 | 56 | 0.0 | 7.0 | 0.00 | 0.00 | 0.00 | 41 | |
| 20260901213753 | 84 | 136 | 0.0 | 7.0 | 0.00 | 0.00 | 0.00 | 44 | |
| 20260901212641 | 83 | 338 | 3.0 | 10.0 | 0.00 | 0.00 | 0.00 | 45 | |
| 20260901212146 | 84 | 323 | 3.0 | 10.0 | 0.00 | 0.00 | 0.00 | 41 | |
| 20260901211027 | 84 | 344 | 4.0 | 9.0 | 0.00 | 0.00 | 0.00 | 40 | |
| 20260901210508 | 84 | 336 | 4.0 | 9.0 | 0.00 | 0.00 | 0.00 | 41 | |
| 20260901210011 | 85 | 271 | 4.0 | 9.0 | 0.00 | 0.00 | 0.00 | 41 | |
| 20260901205457 | 85 | 267 | 4.0 | 9.0 | 0.00 | 0.00 | 0.00 | 43 | |
| 20260901205006 | 85 | 306 | 4.0 | 8.0 | 0.00 | 0.00 | 0.00 | 44 | |
| 20260901204459 | 85 | 284 | 4.0 | 8.0 | 0.00 | 0.00 | 0.00 | 46 | |
| 20260901203941 | 85 | 304 | 4.0 | 8.0 | 0.00 | 0.00 | 0.00 | 46 | |
| 20260901203426 | 84 | 307 | 3.0 | 7.0 | 0.00 | 0.00 | 0.00 | 47 | |
| 20260901202935 | 84 | 298 | 3.0 | 7.0 | 0.00 | 0.00 | 0.00 | 47 | |
| 20260901202429 | 84 | 294 | 3.0 | 8.0 | 0.00 | 0.00 | 0.00 | 47 | |
| 20260901201915 | 84 | 286 | 4.0 | 8.0 | 0.00 | 0.00 | 0.00 | 48 | |
| 20260901201419 | 83 | 309 | 4.0 | 9.0 | 0.00 | 0.00 | 0.00 | 50 | |
| 20260901200905 | 84 | 315 | 4.0 | 9.0 | 0.00 | 0.00 | 0.00 | 49 | |
| 20260901200346 | 84 | 297 | 3.0 | 10.0 | 0.00 | 0.00 | 0.00 | 49 | |
| 20260901195843 | 83 | 311 | 3.0 | 10.0 | 0.00 | 0.00 | 0.00 | 50 | |
| 20260901195349 | 83 | 292 | 4.0 | 10.0 | 0.00 | 0.00 | 0.00 | 50 | |
| 20260901194830 | 84 | 304 | 4.0 | 10.0 | 0.00 | 0.00 | 0.00 | 49 | |
| 20260901193709 | 83 | 338 | 2.0 | 8.0 | 0.00 | 0.00 | 0.00 | 49 | |
| 20260901193153 | 84 | 198 | 2.0 | 8.0 | 0.00 | 0.00 | 0.00 | 49 | |
| 20260901192646 | 83 | 302 | 2.0 | 8.0 | 0.00 | 0.00 | 0.00 | 50 | |
| 20260901192138 | 83 | 317 | 1.0 | 6.0 | 0.00 | 0.00 | 0.00 | 50 | |
| 20260901191645 | 83 | 284 | 2.0 | 8.0 | 0.00 | 0.00 | 0.00 | 50 | |
| 20260901191135 | 83 | 288 | 2.0 | 8.0 | 0.00 | 0.00 | 0.00 | 50 | |
| 20260901190644 | 83 | 298 | 2.0 | 8.0 | 0.00 | 0.00 | 0.00 | 50 | |
| 20260901190126 | 83 | 302 | 3.0 | 8.0 | 0.00 | 0.00 | 0.00 | 51 | |
| 20260901185606 | 83 | 283 | 3.0 | 7.0 | 0.00 | 0.00 | 0.00 | 50 | |
| 20260901184454 | 83 | 310 | 2.0 | 7.0 | 0.00 | 0.00 | 0.00 | 49 | |
| 20260901183949 | 83 | 296 | 2.0 | 7.0 | 0.00 | 0.00 | 0.00 | 50 | |
| 20260901183446 | 83 | 297 | 1.0 | 5.0 | 0.00 | 0.00 | 0.00 | 50 | |
| 20260901182944 | 83 | 298 | 1.0 | 4.0 | 0.00 | 0.00 | 0.00 | 50 | |
| 20260901182433 | 82 | 297 | 1.0 | 4.0 | 0.00 | 0.00 | 0.00 | 52 | |
| 20260901181929 | 82 | 297 | 1.0 | 4.0 | 0.00 | 0.00 | 0.00 | 52 | |
| 20260901181431 | 82 | 298 | 0.0 | 4.0 | 0.00 | 0.00 | 0.00 | 51 | |
| 20260901180939 | 81 | 298 | 0.0 | 3.0 | 0.00 | 0.00 | 0.00 | 51 | |
| 20260901180429 | 81 | 298 | 0.0 | 3.0 | 0.00 | 0.00 | 0.00 | 52 | |
| 20260901175912 | 81 | 298 | 1.0 | 3.0 | 0.00 | 0.00 | 0.00 | 53 | |
| 20260901174729 | 80 | 298 | 1.0 | 6.0 | 0.00 | 0.00 | 0.00 | 53 | |
| 20260901173600 | 78 | 299 | 2.0 | 6.0 | 0.00 | 0.00 | 0.00 | 55 | |
| 20260901173102 | 78 | 299 | 1.0 | 6.0 | 0.00 | 0.00 | 0.00 | 57 | |
| 20260901171917 | 76 | 298 | 0.0 | 1.0 | 0.00 | 0.00 | 0.00 | 59 | |
| 20260901171421 | 75 | 298 | 0.0 | 1.0 | 0.00 | 0.00 | 0.00 | 60 | |
| 20260901170914 | 74 | 298 | 0.0 | 1.0 | 0.00 | 0.00 | 0.00 | 63 | |
| 20260901170414 | 73 | 298 | 0.0 | 0.0 | 0.00 | 0.00 | 0.00 | 63 | |
| 20260901165910 | 72 | 298 | 0.0 | 2.0 | 0.00 | 0.00 | 0.00 | 65 | |
| 20260901165400 | 71 | 298 | 0.0 | 2.0 | 0.00 | 0.00 | 0.00 | 68 | |
| 20260901164855 | 70 | 298 | 0.0 | 2.0 | 0.00 | 0.00 | 0.00 | 68 | |
| 20260901164345 | 70 | 298 | 0.0 | 1.0 | 0.00 | 0.00 | 0.00 | 72 | |
| 20260901163839 | 69 | 298 | 0.0 | 0.0 | 0.00 | 0.00 | 0.00 | 74 | |
| 20260901163335 | 68 | 298 | 0.0 | 1.0 | 0.00 | 0.00 | 0.00 | 76 | |
| 20260901162828 | 67 | 298 | 0.0 | 0.0 | 0.00 | 0.00 | 0.00 | 79 | |
| 20260901162309 | 66 | 298 | 0.0 | 2.0 | 0.00 | 0.00 | 0.00 | 82 | |
| 20260901161806 | 65 | 298 | 0.0 | 2.0 | 0.00 | 0.00 | 0.00 | 85 | |
| 20260901161253 | 64 | 298 | 0.0 | 2.0 | 0.00 | 0.00 | 0.00 | 86 | |
| 20260901160748 | 63 | 298 | 0.0 | 1.0 | 0.00 | 0.00 | 0.00 | 88 | |
| 20260901160232 | 62 | 298 | 0.0 | 1.0 | 0.00 | 0.00 | 0.00 | 90 | |
| 20260901155739 | 61 | 298 | 0.0 | 0.0 | 0.00 | 0.00 | 0.00 | 91 | |
| 20260901154604 | 60 | 298 | 0.0 | 0.0 | 0.00 | 0.00 | 0.00 | 91 | |
| 20260901154109 | 59 | 298 | 0.0 | 1.0 | 0.00 | 0.00 | 0.00 | 91 | |
| 20260901153552 | 59 | 298 | 0.0 | 0.0 | 0.00 | 0.00 | 0.00 | 91 | |
| 20260901153039 | 58 | 298 | 0.0 | 0.0 | 0.00 | 0.00 | 0.00 | 90 | |
| 20260901152524 | 58 | 298 | 0.0 | 0.0 | 0.00 | 0.00 | 0.00 | 90 | |
| 20260901151407 | 58 | 298 | 0.0 | 1.0 | 0.00 | 0.00 | 0.00 | 89 | |
| 20260901150907 | 58 | 298 | 0.0 | 1.0 | 0.00 | 0.00 | 0.00 | 90 | |
| 20260901150349 | 58 | 298 | 0.0 | 1.0 | 0.00 | 0.00 | 0.00 | 90 | |
| 20260901145844 | 58 | 298 | 0.0 | 1.0 | 0.00 | 0.00 | 0.00 | 91 | |
| 20260901144706 | 57 | 298 | 0.0 | 1.0 | 0.00 | 0.00 | 0.00 | 92 | |
| 20260901144155 | 57 | 298 | 0.0 | 0.0 | 0.00 | 0.00 | 0.00 | 92 | |
| 20260901143654 | 57 | 298 | 0.0 | 0.0 | 0.00 | 0.00 | 0.00 | 92 | |
| 20260901143150 | 57 | 298 | 0.0 | 0.0 | 0.00 | 0.00 | 0.00 | 92 | |
| 20260901142638 | 57 | 298 | 0.0 | 0.0 | 0.00 | 0.00 | 0.00 | 92 | |
| 20260901142133 | 57 | 298 | 0.0 | 0.0 | 0.00 | 0.00 | 0.00 | 91 | |
| 20260901141007 | 56 | 298 | 0.0 | 0.0 | 0.00 | 0.00 | 0.00 | 91 | |
| 20260901140512 | 56 | 298 | 0.0 | 0.0 | 0.00 | 0.00 | 0.00 | 91 | |
| 20260901140011 | 56 | 298 | 0.0 | 0.0 | 0.00 | 0.00 | 0.00 | 91 | |
| 20260901135517 | 56 | 298 | 0.0 | 1.0 | 0.00 | 0.00 | 0.00 | 91 | |
| 20260901135010 | 56 | 298 | 0.0 | 0.0 | 0.00 | 0.00 | 0.00 | 91 | |
| 20260901134500 | 56 | 298 | 0.0 | 0.0 | 0.00 | 0.00 | 0.00 | 91 | |
| 20260901134000 | 56 | 298 | 0.0 | 0.0 | 0.00 | 0.00 | 0.00 | 91 | |
| 20260901133442 | 57 | 298 | 0.0 | 0.0 | 0.00 | 0.00 | 0.00 | 91 | |
| 20260901132943 | 57 | 298 | 0.0 | 0.0 | 0.00 | 0.00 | 0.00 | 91 | |
| 20260901132425 | 57 | 298 | 0.0 | 0.0 | 0.00 | 0.00 | 0.00 | 91 | |
| 20260901131250 | 57 | 298 | 0.0 | 0.0 | 0.00 | 0.00 | 0.00 | 92 | |
| 20260901130731 | 57 | 298 | 0.0 | 0.0 | 0.00 | 0.00 | 0.00 | 92 | |
| 20260901130227 | 57 | 298 | 0.0 | 0.0 | 0.00 | 0.00 | 0.00 | 92 | |
| 20260901124432 | 57 | 298 | 0.0 | 0.0 | 0.00 | 0.00 | 0.00 | 92 | |
| 20260901123928 | 56 | 298 | 0.0 | 0.0 | 0.00 | 0.00 | 0.00 | 92 | |
| 20260901123409 | 56 | 298 | 0.0 | 0.0 | 0.00 | 0.00 | 0.00 | 92 | |
| 20260901122914 | 56 | 298 | 0.0 | 0.0 | 0.00 | 0.00 | 0.00 | 92 | |
| 20260901121756 | 56 | 298 | 0.0 | 0.0 | 0.00 | 0.00 | 0.00 | 92 | |
| 20260901121247 | 55 | 298 | 0.0 | 0.0 | 0.00 | 0.00 | 0.00 | 92 | |
| 20260901120738 | 55 | 298 | 0.0 | 0.0 | 0.00 | 0.00 | 0.00 | 91 | |
| 20260901120235 | 55 | 298 | 0.0 | 0.0 | 0.00 | 0.00 | 0.00 | 91 | |
| 20260901115743 | 55 | 298 | 0.0 | 0.0 | 0.00 | 0.00 | 0.00 | 91 | |
| 20260901115227 | 54 | 298 | 0.0 | 0.0 | 0.00 | 0.00 | 0.00 | 91 | |
| 20260901114734 | 54 | 298 | 0.0 | 0.0 | 0.00 | 0.00 | 0.00 | 91 | |
| 20260901113604 | 54 | 298 | 0.0 | 0.0 | 0.00 | 0.00 | 0.00 | 90 | |
| 20260901113103 | 54 | 298 | 0.0 | 0.0 | 0.00 | 0.00 | 0.00 | 90 | |
| 20260901112554 | 54 | 298 | 0.0 | 0.0 | 0.00 | 0.00 | 0.00 | 90 | |
| 20260901112050 | 54 | 298 | 0.0 | 0.0 | 0.00 | 0.00 | 0.00 | 90 | |
| 20260901111536 | 54 | 298 | 0.0 | 1.0 | 0.00 | 0.00 | 0.00 | 90 | |
| 20260901111033 | 54 | 298 | 0.0 | 0.0 | 0.00 | 0.00 | 0.00 | 90 | |
| 20260901110541 | 54 | 298 | 0.0 | 2.0 | 0.00 | 0.00 | 0.00 | 90 | |
| 20260901110045 | 54 | 298 | 0.0 | 1.0 | 0.00 | 0.00 | 0.00 | 89 | |
| 20260901105548 | 54 | 298 | 0.0 | 0.0 | 0.00 | 0.00 | 0.00 | 89 | |
| 20260901105057 | 53 | 298 | 0.0 | 0.0 | 0.00 | 0.00 | 0.00 | 88 | |
| 20260901103943 | 53 | 298 | 0.0 | 0.0 | 0.00 | 0.00 | 0.00 | 87 | |
| 20260901103432 | 54 | 298 | 0.0 | 0.0 | 0.00 | 0.00 | 0.00 | 87 | |
| 20260901102937 | 54 | 298 | 0.0 | 0.0 | 0.00 | 0.00 | 0.00 | 87 | |
| 20260901101749 | 54 | 298 | 0.0 | 0.0 | 0.00 | 0.00 | 0.00 | 88 | |
| 20260901101234 | 54 | 298 | 0.0 | 0.0 | 0.00 | 0.00 | 0.00 | 88 | |
| 20260901100719 | 54 | 298 | 0.0 | 0.0 | 0.00 | 0.00 | 0.00 | 88 | |
| 20260901100217 | 54 | 298 | 0.0 | 0.0 | 0.00 | 0.00 | 0.00 | 88 | |
| 20260901095708 | 54 | 298 | 0.0 | 0.0 | 0.00 | 0.00 | 0.00 | 88 | |
| 20260901094542 | 55 | 298 | 0.0 | 0.0 | 0.00 | 0.00 | 0.00 | 88 | |
| 20260901094049 | 55 | 298 | 0.0 | 0.0 | 0.00 | 0.00 | 0.00 | 88 | |
| 20260901093538 | 55 | 298 | 0.0 | 0.0 | 0.00 | 0.00 | 0.00 | 88 | |
| 20260901093044 | 55 | 298 | 0.0 | 0.0 | 0.00 | 0.00 | 0.00 | 88 | |
| 20260901092544 | 55 | 298 | 0.0 | 2.0 | 0.00 | 0.00 | 0.00 | 87 | |
| 20260901092045 | 55 | 298 | 0.0 | 0.0 | 0.00 | 0.00 | 0.00 | 87 | |
| 20260901091555 | 55 | 298 | 0.0 | 0.0 | 0.00 | 0.00 | 0.00 | 87 | |
| 20260901091043 | 55 | 298 | 0.0 | 0.0 | 0.00 | 0.00 | 0.00 | 87 | |
| 20260901090545 | 55 | 298 | 0.0 | 0.0 | 0.00 | 0.00 | 0.00 | 86 | |
| 20260901090045 | 55 | 298 | 0.0 | 0.0 | 0.00 | 0.00 | 0.00 | 86 | |
| 20260901085536 | 55 | 298 | 0.0 | 0.0 | 0.00 | 0.00 | 0.00 | 86 | |
| 20260901085044 | 55 | 298 | 0.0 | 0.0 | 0.00 | 0.00 | 0.00 | 86 | |
| 20260901084523 | 55 | 298 | 0.0 | 0.0 | 0.00 | 0.00 | 0.00 | 86 | |
| 20260901084022 | 55 | 298 | 0.0 | 0.0 | 0.00 | 0.00 | 0.00 | 86 | |
| 20260901083510 | 56 | 298 | 0.0 | 0.0 | 0.00 | 0.00 | 0.00 | 85 | |
| 20260901082343 | 56 | 298 | 0.0 | 0.0 | 0.00 | 0.00 | 0.00 | 85 | |
| 20260901081845 | 56 | 298 | 0.0 | 0.0 | 0.00 | 0.00 | 0.00 | 85 | |
| 20260901081348 | 56 | 298 | 0.0 | 0.0 | 0.00 | 0.00 | 0.00 | 85 | |
| 20260901080845 | 56 | 298 | 0.0 | 0.0 | 0.00 | 0.00 | 0.00 | 85 | |
| 20260901080343 | 56 | 298 | 0.0 | 0.0 | 0.00 | 0.00 | 0.00 | 85 | |
| 20260901075834 | 57 | 298 | 0.0 | 0.0 | 0.00 | 0.00 | 0.00 | 85 | |
| 20260901074706 | 57 | 298 | 0.0 | 0.0 | 0.00 | 0.00 | 0.00 | 85 | |
| 20260901074216 | 57 | 298 | 0.0 | 0.0 | 0.00 | 0.00 | 0.00 | 85 | |
| 20260901073705 | 57 | 298 | 0.0 | 0.0 | 0.00 | 0.00 | 0.00 | 85 | |
| 20260901073153 | 57 | 298 | 0.0 | 0.0 | 0.00 | 0.00 | 0.00 | 85 | |
| 20260901072028 | 57 | 298 | 0.0 | 0.0 | 0.00 | 0.00 | 0.00 | 84 | |
| 20260901071532 | 57 | 298 | 0.0 | 0.0 | 0.00 | 0.00 | 0.00 | 84 | |
| 20260901071042 | 58 | 298 | 0.0 | 0.0 | 0.00 | 0.00 | 0.00 | 84 | |
| 20260901070528 | 58 | 298 | 0.0 | 0.0 | 0.00 | 0.00 | 0.00 | 84 | |
| 20260901070031 | 58 | 298 | 0.0 | 0.0 | 0.00 | 0.00 | 0.00 | 84 | |
| 20260901065532 | 58 | 298 | 0.0 | 0.0 | 0.00 | 0.00 | 0.00 | 83 | |
| 20260901065031 | 58 | 298 | 0.0 | 0.0 | 0.00 | 0.00 | 0.00 | 83 | |
| 20260901064537 | 58 | 298 | 0.0 | 0.0 | 0.00 | 0.00 | 0.00 | 84 | |
| 20260901064020 | 58 | 298 | 0.0 | 0.0 | 0.00 | 0.00 | 0.00 | 83 | |
| 20260901063528 | 58 | 298 | 0.0 | 0.0 | 0.00 | 0.00 | 0.00 | 84 | |
| 20260901063021 | 59 | 298 | 0.0 | 0.0 | 0.00 | 0.00 | 0.00 | 83 | |
| 20260901062510 | 59 | 298 | 0.0 | 0.0 | 0.00 | 0.00 | 0.00 | 83 | |
| 20260901062003 | 59 | 298 | 0.0 | 0.0 | 0.00 | 0.00 | 0.00 | 83 | |
| 20260901061455 | 59 | 298 | 0.0 | 0.0 | 0.00 | 0.00 | 0.00 | 82 | |
| 20260901060314 | 59 | 298 | 0.0 | 0.0 | 0.00 | 0.00 | 0.00 | 81 | |
| 20260901055809 | 60 | 298 | 0.0 | 0.0 | 0.00 | 0.00 | 0.00 | 81 | |
| 20260901055250 | 60 | 298 | 0.0 | 0.0 | 0.00 | 0.00 | 0.00 | 80 | |
| 20260901054742 | 60 | 298 | 0.0 | 0.0 | 0.00 | 0.00 | 0.00 | 80 | |
| 20260901054250 | 60 | 298 | 0.0 | 0.0 | 0.00 | 0.00 | 0.00 | 80 | |
| 20260901053730 | 60 | 298 | 0.0 | 0.0 | 0.00 | 0.00 | 0.00 | 80 | |
| 20260901052557 | 61 | 298 | 0.0 | 0.0 | 0.00 | 0.00 | 0.00 | 80 | |
| 20260901050125 | 62 | 298 | 0.0 | 0.0 | 0.00 | 0.00 | 0.00 | 80 | |
| 20260901045627 | 62 | 298 | 0.0 | 0.0 | 0.00 | 0.00 | 0.00 | 79 | |
| 20260901045115 | 62 | 298 | 0.0 | 1.0 | 0.00 | 0.00 | 0.00 | 79 | |
| 20260901043939 | 63 | 298 | 0.0 | 0.0 | 0.00 | 0.00 | 0.00 | 78 | |
| 20260901043432 | 63 | 298 | 0.0 | 0.0 | 0.00 | 0.00 | 0.00 | 77 | |
| 20260901042911 | 63 | 298 | 0.0 | 0.0 | 0.00 | 0.00 | 0.00 | 77 | |
| 20260901041734 | 64 | 298 | 0.0 | 0.0 | 0.00 | 0.00 | 0.00 | 75 | |
| 20260901041223 | 64 | 298 | 0.0 | 0.0 | 0.00 | 0.00 | 0.00 | 75 | |
| 20260901040123 | 65 | 298 | 0.0 | 0.0 | 0.00 | 0.00 | 0.00 | 75 | |
| 20260901035613 | 65 | 298 | 0.0 | 0.0 | 0.00 | 0.00 | 0.00 | 75 | |
| 20260901035105 | 66 | 298 | 0.0 | 0.0 | 0.00 | 0.00 | 0.00 | 74 | |
| 20260901034549 | 66 | 298 | 0.0 | 0.0 | 0.00 | 0.00 | 0.00 | 73 | |
| 20260901034048 | 66 | 298 | 0.0 | 0.0 | 0.00 | 0.00 | 0.00 | 72 | |
| 20260901033531 | 67 | 298 | 0.0 | 0.0 | 0.00 | 0.00 | 0.00 | 71 | |
| 20260901033030 | 67 | 298 | 0.0 | 0.0 | 0.00 | 0.00 | 0.00 | 71 | |
| 20260901032515 | 67 | 298 | 0.0 | 0.0 | 0.00 | 0.00 | 0.00 | 71 | |
| 20260901032019 | 68 | 298 | 0.0 | 0.0 | 0.00 | 0.00 | 0.00 | 71 | |
| 20260901031506 | 68 | 298 | 0.0 | 0.0 | 0.00 | 0.00 | 0.00 | 71 |